Regional Weather Roundup
Issued by NWS

Home | Current Version | Previous Version | Text Only | Print | Product List | Glossary Off
Versions: 1 2 3 4 5 6 7 8 9 10 11 12 13 14 15 16 17 18 19 20 21 22 23 24 25 26 27 28 29 30 31 32 33 34 35 36 37 38 39 40 41 42 43 44 45 46 47 48 49 50

000
ASUS43 KBIS 202202
RWRND

NORTH DAKOTA REGIONAL WEATHER ROUNDUP
NATIONAL WEATHER SERVICE BISMARCK ND
400 PM CST MON NOV 20 2017

NOTE: "FAIR" INDICATES FEW OR NO CLOUDS BELOW 12,000 FEET WITH NO
SIGNIFICANT WEATHER AND/OR OBSTRUCTIONS TO VISIBILITY.


NDZ001>003-009>011-017-202300-
NORTHWEST NORTH DAKOTA

CITY           SKY/WX    TMP DP  RH WIND       PRES   REMARKS
WILLISTON      CLOUDY    37  17  44 NW30G38   29.66R
MINOT          CLEAR     35  22  58 W29G45    29.52R
MINOT AFB      CLEAR     32  21  64 NW28G38   29.52R WCI  18
$$

NDZ018>021-031>035-040>046-202300-
SOUTHWEST NORTH DAKOTA

CITY           SKY/WX    TMP DP  RH WIND       PRES   REMARKS
BISMARCK       CLEAR     54  29  38 NW24G39   29.54R
DICKINSON      PTCLDY    46  25  43 NW30G37   29.59R
GARRISON         N/A     37  27  67 NW28G40   29.56R
HETTINGER ARPT CLEAR     52  24  33 NW30G40   29.61R
$$

NDZ004>008-012>016-024-026-027-054-202300-
NORTHEAST NORTH DAKOTA

CITY           SKY/WX    TMP DP  RH WIND       PRES   REMARKS
GRAND FORKS    CLOUDY    43  30  60 W17       29.30R
GRND FRKS AFB  CLOUDY    43  29  56 W18G24    29.32R
DEVILS LAKE    CLEAR     38  31  76 W31G38    29.36R
$$

NDZ022-023-025-028>030-036>039-047>053-202300-
SOUTHEAST NORTH DAKOTA

CITY           SKY/WX    TMP DP  RH WIND       PRES   REMARKS
FARGO          CLEAR     53  26  35 W17       29.34S
JAMESTOWN      CLEAR     49  27  42 W28G39    29.42R
$$





USA.gov is the U.S. government's official web portal to all federal, state and local government web resources and services.